CW6761 Aldeanueva de Vera ES current weather conditions

sailwx.info

Wind from 344 at 1 knots

Air temperature 24.4° C
Dewpoint 6.2° C

Last reported at 2019-Aug-24 00:03 UTC.
Time now 2019-Aug-24 01:07 UTC

Location: N 40°08' W 005°42'.
View on Google Maps.

See reports from other nearby stations

  
Tides and Currents Weather Stations Pressure Air Temp Water Temp Dewpoint Dewpoint Depression Visibility Wind Speed Wind Dir Waves Ship Positions
date/time (UTC)wind fromknots sea level pressurealtimeterstation pressurevisibilityair tempwater tempwave heightnotes
2019-Aug-24 00:03 344 1 24.4
2019-Aug-23 23:58 011 0 24.4
2019-Aug-23 23:53 011 0 24.4
2019-Aug-23 23:48 005 1 25.0
2019-Aug-23 23:43 005 0 25.0
2019-Aug-23 23:38 011 0 25.0
2019-Aug-23 23:33 355 0 25.0
2019-Aug-23 23:28 360 0 25.0
2019-Aug-23 23:23 360 0 25.0
2019-Aug-23 23:17 355 25.0
2019-Aug-23 23:13 343 25.0
2019-Aug-23 23:08 344 25.0
2019-Aug-23 23:03 347 1 24.4
2019-Aug-23 22:58 355 1 24.4
2019-Aug-23 22:52 355 1 25.0
2019-Aug-23 22:47 355 1 25.0
2019-Aug-23 22:43 360 0 25.0
2019-Aug-23 22:38 360 0 25.0
2019-Aug-23 22:33 344 0 25.0
2019-Aug-23 22:28 005 0 25.0
2019-Aug-23 22:23 350 0 25.0
2019-Aug-23 22:18 005 25.0
2019-Aug-23 22:13 355 25.6
2019-Aug-23 22:08 355 25.6
2019-Aug-23 22:03 355 26.1
2019-Aug-23 21:58 343 26.1
2019-Aug-23 21:53 343 26.1
2019-Aug-23 21:48 342 0 26.1
2019-Aug-23 21:42 360 0 26.1
2019-Aug-23 21:37 349 0 26.1
2019-Aug-23 21:32 351 0 26.1
2019-Aug-23 21:28 350 0 26.7
2019-Aug-23 21:23 347 1 26.7
2019-Aug-23 21:18 355 0 26.7
2019-Aug-23 21:13 360 0 26.7
2019-Aug-23 21:08 355 0 26.7
2019-Aug-23 21:03 360 0 26.7
2019-Aug-23 20:58 355 1 26.1
2019-Aug-23 20:53 005 1 26.1
2019-Aug-23 20:48 355 1 26.1
2019-Aug-23 20:43 360 0 25.6
2019-Aug-23 20:38 013 0 25.6
2019-Aug-23 20:33 009 25.6
2019-Aug-23 20:27 005 25.6
2019-Aug-23 20:23 360 26.1
2019-Aug-23 20:18 010 26.1
2019-Aug-23 20:13 360 26.1
2019-Aug-23 20:08 005 26.1
2019-Aug-23 20:03 005 26.7
2019-Aug-23 19:58 351 26.1
2019-Aug-23 19:53 351 26.1
2019-Aug-23 19:48 360 26.1
2019-Aug-23 19:43 345 26.1
2019-Aug-23 19:38 340 26.1
2019-Aug-23 19:33 338 26.1
2019-Aug-23 19:28 338 26.7
2019-Aug-23 19:23 005 26.7
2019-Aug-23 19:18 011 26.7
2019-Aug-23 19:13 011 26.7
2019-Aug-23 19:08 011 27.2
2019-Aug-23 19:03 017 27.2
2019-Aug-23 18:58 024 27.2
2019-Aug-23 18:53 025 27.2
2019-Aug-23 18:48 031 27.8
2019-Aug-23 18:43 037 27.8
2019-Aug-23 18:38 037 28.3
2019-Aug-23 18:33 037 28.3
2019-Aug-23 18:27 155 28.9
2019-Aug-23 18:23 157 28.9
2019-Aug-23 18:18 163 29.4
2019-Aug-23 18:13 163 29.4
2019-Aug-23 18:08 163 30.0
2019-Aug-23 18:02 163 30.0
2019-Aug-23 17:58 163 30.0
2019-Aug-23 17:53 163 30.6
2019-Aug-23 17:48 163 30.6
2019-Aug-23 17:43 163 30.6
2019-Aug-23 17:38 163 30.6
2019-Aug-23 17:33 163 31.1
2019-Aug-23 17:28 163 31.1
2019-Aug-23 17:23 163 31.1
2019-Aug-23 17:18 163 0 31.7
2019-Aug-23 17:13 163 31.7
2019-Aug-23 17:08 171 31.7
2019-Aug-23 17:02 168 31.7
2019-Aug-23 16:58 169 32.2
2019-Aug-23 16:53 169 32.2
2019-Aug-23 16:48 169 32.2
2019-Aug-23 16:43 169 32.2
2019-Aug-23 16:37 157 32.2
2019-Aug-23 16:32 157 32.2
2019-Aug-23 16:28 157 32.2
2019-Aug-23 16:23 157 32.8
2019-Aug-23 16:18 157 32.8
2019-Aug-23 16:12 161 32.8
2019-Aug-23 16:07 161 32.8
2019-Aug-23 16:03 169 32.8
2019-Aug-23 15:58 204 32.8
2019-Aug-23 15:52 205 0 33.3
2019-Aug-23 15:48 205 2 33.3
2019-Aug-23 15:43 176 2 33.3
2019-Aug-23 15:37 175 0 32.8
2019-Aug-23 15:33 213 32.8
2019-Aug-23 15:28 267 32.8
2019-Aug-23 15:23 265 0 33.3
2019-Aug-23 15:18 232 1 33.3
2019-Aug-23 15:13 049 1 33.3
2019-Aug-23 15:08 182 1 33.3
2019-Aug-23 15:03 124 1 33.9
2019-Aug-23 14:58 213 2 33.9
2019-Aug-23 14:52 217 3 33.9
2019-Aug-23 14:48 173 2 33.3
2019-Aug-23 14:43 194 0 33.3
2019-Aug-23 14:38 088 33.3
2019-Aug-23 14:33 078 0 33.3
2019-Aug-23 14:28 097 0 33.3
2019-Aug-23 14:23 167 0 33.3
2019-Aug-23 14:18 084 33.3
2019-Aug-23 14:13 101 0 33.3
2019-Aug-23 14:08 165 1 33.3
2019-Aug-23 14:03 146 1 33.3
2019-Aug-23 13:58 144 2 33.3
2019-Aug-23 13:53 139 1 32.8
2019-Aug-23 13:48 053 0 32.8
2019-Aug-23 13:43 051 0 33.3
2019-Aug-23 13:38 156 0 33.3
2019-Aug-23 13:33 161 1 32.8
2019-Aug-23 13:28 137 1 32.8
2019-Aug-23 13:23 110 1 32.8
2019-Aug-23 13:18 071 1 32.8
2019-Aug-23 13:13 108 0 33.3
2019-Aug-23 13:08 123 1 33.3
2019-Aug-23 13:03 169 2 33.3
2019-Aug-23 12:57 147 2 32.8
2019-Aug-23 12:52 191 2 32.8
2019-Aug-23 12:48 165 1 32.8
2019-Aug-23 12:43 022 1 32.8
2019-Aug-23 12:38 200 0 32.8
2019-Aug-23 12:33 026 0 32.8
2019-Aug-23 12:27 171 0 32.8
2019-Aug-23 12:22 159 0 32.8
2019-Aug-23 12:18 232 1 32.2
2019-Aug-23 12:13 116 1 32.2
2019-Aug-23 12:08 142 0 32.2
2019-Aug-23 12:03 136 0 32.2
2019-Aug-23 11:58 136 1 32.2
2019-Aug-23 11:53 175 0 32.2
2019-Aug-23 11:48 134 0 32.2
2019-Aug-23 11:43 154 0 32.2
2019-Aug-23 11:37 171 0 31.7
2019-Aug-23 11:32 162 0 31.7
2019-Aug-23 11:28 111 0 32.2
2019-Aug-23 11:23 212 0 31.7
2019-Aug-23 11:18 140 1 31.7
2019-Aug-23 11:12 148 0 31.1
2019-Aug-23 11:07 148 0 31.1
2019-Aug-23 11:02 133 0 30.6
2019-Aug-23 10:58 167 0 30.6
2019-Aug-23 10:53 084 0 30.6
2019-Aug-23 10:48 100 0 30.6
2019-Aug-23 10:43 153 0 30.6
2019-Aug-23 10:38 119 30.0
2019-Aug-23 10:33 025 0 30.0
2019-Aug-23 10:28 086 0 29.4
2019-Aug-23 10:23 166 29.4
2019-Aug-23 10:17 104 28.9
2019-Aug-23 10:13 099 28.9
2019-Aug-23 10:08 098 28.9
2019-Aug-23 10:03 121 28.9
2019-Aug-23 09:57 151 28.3
2019-Aug-23 09:52 076 28.3
2019-Aug-23 09:47 109 28.3
2019-Aug-23 09:42 096 0 27.8
2019-Aug-23 09:37 092 0 27.8
2019-Aug-23 09:32 091 27.8
2019-Aug-23 09:27 140 27.8
2019-Aug-23 09:22 138 0 27.8
2019-Aug-23 09:18 139 0 27.8
2019-Aug-23 09:13 155 27.8
2019-Aug-23 09:08 153 27.2
2019-Aug-23 09:03 153 27.2
2019-Aug-23 08:58 153 26.7
2019-Aug-23 08:53 153 26.7
2019-Aug-23 08:48 151 26.7
2019-Aug-23 08:43 101 26.1
2019-Aug-23 08:38 082 26.1
2019-Aug-23 08:32 046 26.1
2019-Aug-23 08:28 044 25.6
2019-Aug-23 08:22 029 25.6
2019-Aug-23 08:17 029 25.6
2019-Aug-23 08:13 029 25.0
2019-Aug-23 08:08 011 25.0
2019-Aug-23 08:03 011 25.0
2019-Aug-23 07:58 015 24.4
2019-Aug-23 07:53 015 24.4
2019-Aug-23 07:48 011 24.4
2019-Aug-23 07:43 005 24.4
2019-Aug-23 07:38 009 24.4
2019-Aug-23 07:33 009 23.9
2019-Aug-23 07:28 009 23.9
2019-Aug-23 07:23 009 23.9
2019-Aug-23 07:17 009 23.9
2019-Aug-23 07:13 347 23.3
2019-Aug-23 07:08 347 22.8
2019-Aug-23 07:02 347 22.8
2019-Aug-23 06:57 347 22.2
2019-Aug-23 06:52 347 21.7
2019-Aug-23 06:48 347 21.1
2019-Aug-23 06:43 347 21.1
2019-Aug-23 06:38 347 20.6
2019-Aug-23 06:33 347 20.6
2019-Aug-23 06:28 347 20.6
2019-Aug-23 06:23 347 20.6
2019-Aug-23 06:18 347 20.0
2019-Aug-23 06:13 347 20.0
2019-Aug-23 06:08 347 20.6
2019-Aug-23 06:03 347 20.6
2019-Aug-23 05:57 351 20.6
2019-Aug-23 05:52 355 20.6
2019-Aug-23 05:48 355 0 20.6
2019-Aug-23 05:37 346 20.6
2019-Aug-23 05:33 351 20.6
2019-Aug-23 05:27 355 20.6
2019-Aug-23 05:22 355 20.6
2019-Aug-23 05:18 355 20.6
2019-Aug-23 05:13 355 20.6
2019-Aug-23 05:08 355 20.6
2019-Aug-23 05:03 355 20.6
2019-Aug-23 04:57 355 20.6
2019-Aug-23 04:52 355 20.6
2019-Aug-23 04:48 355 0 20.6
2019-Aug-23 04:43 355 0 20.6
2019-Aug-23 04:37 355 20.6
2019-Aug-23 04:33 339 20.6
2019-Aug-23 04:28 340 21.1
2019-Aug-23 04:22 340 21.1
2019-Aug-23 04:17 340 21.1
2019-Aug-23 04:13 340 21.1
2019-Aug-23 04:07 340 21.1
2019-Aug-23 04:02 341 21.1
2019-Aug-23 03:58 346 21.1
2019-Aug-23 03:53 344 21.7
2019-Aug-23 03:48 346 21.7
2019-Aug-23 03:43 346 21.7
2019-Aug-23 03:37 347 22.2
2019-Aug-23 03:32 347 22.2
2019-Aug-23 03:28 344 22.2
2019-Aug-23 03:22 340 22.2
2019-Aug-23 03:17 340 22.8
2019-Aug-23 03:13 355 0 22.8
2019-Aug-23 03:08 355 0 22.8
2019-Aug-23 03:02 355 0 22.8
2019-Aug-23 02:58 350 0 22.8
2019-Aug-23 02:53 338 0 22.8
2019-Aug-23 02:47 348 1 22.8
2019-Aug-23 02:43 355 0 22.8
2019-Aug-23 02:38 355 0 22.8
2019-Aug-23 02:33 349 0 22.8
2019-Aug-23 02:27 351 0 22.8
2019-Aug-23 02:23 355 0 22.8
2019-Aug-23 02:18 355 0 23.3
2019-Aug-23 02:12 005 0 23.3
2019-Aug-23 02:08 342 1 23.3
2019-Aug-23 02:03 360 0 23.3
2019-Aug-23 01:57 005 23.3
2019-Aug-23 01:52 355 23.9
2019-Aug-23 01:48 360 0 23.9
2019-Aug-23 01:43 350 0 23.9
2019-Aug-23 01:37 348 0 23.9
2019-Aug-23 01:33 349 0 24.4
2019-Aug-23 01:28 355 0 24.4
2019-Aug-23 01:23 355 0 24.4
2019-Aug-23 01:18 349 1 24.4
2019-Aug-23 01:12 344 0 24.4
2019-Aug-23 01:07 338 0 24.4
2019-Aug-23 01:02 348 0 25.0
2019-Aug-23 00:58 350 0 25.0
2019-Aug-23 00:52 350 0 25.0
2019-Aug-23 00:47 343 0 25.0
2019-Aug-23 00:43 347 0 25.0
2019-Aug-23 00:38 346 0 25.0
2019-Aug-23 00:32 355 0 25.0
2019-Aug-23 00:28 348 0 25.0
2019-Aug-23 00:17 348 0 25.0
2019-Aug-23 00:13 349 0 25.0
2019-Aug-23 00:08 335 1 25.0
2019-Aug-23 00:03 350 1 25.0
2019-Aug-22 23:57 355 0 25.0
2019-Aug-22 23:53 336 0 25.0
2019-Aug-22 23:48 012 1 25.0
2019-Aug-22 23:43 340 1 25.0
2019-Aug-22 23:37 344 1 25.0
2019-Aug-22 23:33 351 0 25.0
2019-Aug-22 23:28 342 0 25.0
2019-Aug-22 23:22 355 0 25.0
2019-Aug-22 23:17 340 25.0
2019-Aug-22 23:13 343 0 25.0
2019-Aug-22 23:07 355 0 25.0
2019-Aug-22 23:02 340 0 24.4
2019-Aug-22 22:58 351 24.4
2019-Aug-22 22:53 346 24.4
2019-Aug-22 22:48 355 24.4
2019-Aug-22 22:42 339 0 24.4
2019-Aug-22 22:37 355 0 24.4
2019-Aug-22 22:33 355 0 24.4
2019-Aug-22 22:28 005 24.4
2019-Aug-22 22:22 355 24.4
2019-Aug-22 22:17 360 24.4
2019-Aug-22 22:12 005 25.0
2019-Aug-22 22:08 005 25.0
2019-Aug-22 22:03 005 25.6
2019-Aug-22 21:57 360 25.6
2019-Aug-22 21:52 355 25.6
2019-Aug-22 21:47 349 25.6
2019-Aug-22 21:43 346 25.6
2019-Aug-22 21:38 348 0 26.1
2019-Aug-22 21:33 328 1 26.1
2019-Aug-22 21:28 005 1 26.1
2019-Aug-22 21:23 355 0 25.6
2019-Aug-22 21:17 015 1 26.1
2019-Aug-22 21:12 340 1 26.1
2019-Aug-22 21:07 328 1 26.1
2019-Aug-22 21:03 344 1 26.1
2019-Aug-22 20:58 350 0 26.1
2019-Aug-22 20:52 355 0 26.1
2019-Aug-22 20:47 342 0 26.1
2019-Aug-22 20:43 329 1 26.1
2019-Aug-22 20:37 350 2 26.1
2019-Aug-22 20:33 355 3 26.1
2019-Aug-22 20:28 360 2 26.1
2019-Aug-22 20:23 342 2 26.1
2019-Aug-22 20:18 338 3 26.1
2019-Aug-22 20:13 005 3 26.1
2019-Aug-22 20:08 355 3 26.7
2019-Aug-22 20:02 005 3 26.7
2019-Aug-22 19:53 325 2 26.7
2019-Aug-22 19:48 346 1 26.7
2019-Aug-22 19:42 360 1 26.7
2019-Aug-22 19:38 011 2 26.7
2019-Aug-22 19:33 346 2 26.7
2019-Aug-22 19:27 348 2 26.7
2019-Aug-22 19:22 355 2 26.7
2019-Aug-22 19:18 355 2 26.7
2019-Aug-22 19:13 347 1 26.7
2019-Aug-22 19:08 344 0 27.2
2019-Aug-22 19:03 337 0 27.2
2019-Aug-22 18:58 350 0 27.2
2019-Aug-22 18:53 348 27.2
2019-Aug-22 18:47 338 27.2
2019-Aug-22 18:43 336 27.8
2019-Aug-22 18:38 333 27.8
2019-Aug-22 18:32 325 28.3
2019-Aug-22 18:27 262 28.9
2019-Aug-22 18:23 196 28.9
2019-Aug-22 18:18 196 28.9
2019-Aug-22 18:12 196 29.4
2019-Aug-22 18:07 196 29.4
2019-Aug-22 18:03 183 29.4
2019-Aug-22 17:58 183 30.0
2019-Aug-22 17:53 183 30.0
2019-Aug-22 17:48 185 30.0
2019-Aug-22 17:42 185 30.0
2019-Aug-22 17:37 184 30.0
2019-Aug-22 17:33 180 30.6
2019-Aug-22 17:28 184 30.6
2019-Aug-22 17:22 184 30.6
2019-Aug-22 17:18 184 0 30.6
2019-Aug-22 17:13 167 0 30.6
2019-Aug-22 17:07 174 30.6
2019-Aug-22 17:02 190 30.6
2019-Aug-22 16:58 193 31.1
2019-Aug-22 16:53 193 31.1
2019-Aug-22 16:48 198 0 31.1
2019-Aug-22 16:43 199 0 31.1
2019-Aug-22 16:38 129 31.1
2019-Aug-22 16:33 108 31.1
2019-Aug-22 16:28 105 31.7
2019-Aug-22 16:22 106 0 31.7
2019-Aug-22 16:18 061 1 31.7
2019-Aug-22 16:13 188 0 31.7
2019-Aug-22 16:07 060 31.7
2019-Aug-22 16:02 034 31.7
2019-Aug-22 15:58 005 31.7
2019-Aug-22 15:53 091 31.7
2019-Aug-22 15:47 103 0 31.7
2019-Aug-22 15:42 109 0 31.7
2019-Aug-22 15:38 101 0 32.2
2019-Aug-22 15:33 128 32.2
2019-Aug-22 15:28 149 0 32.2
2019-Aug-22 15:23 149 0 32.2
2019-Aug-22 15:18 134 0 32.2
2019-Aug-22 15:13 241 0 31.7
2019-Aug-22 15:07 111 1 31.7
2019-Aug-22 15:02 110 0 31.7
2019-Aug-22 14:57 296 31.1
2019-Aug-22 14:52 018 31.7
2019-Aug-22 14:47 132 0 31.7
2019-Aug-22 14:42 148 0 31.7
2019-Aug-22 14:38 128 31.7
2019-Aug-22 14:33 110 0 31.7
2019-Aug-22 14:28 036 1 31.7
2019-Aug-22 14:23 072 1 31.7
2019-Aug-22 14:18 100 0 31.1
2019-Aug-22 14:13 073 0 31.7
2019-Aug-22 14:08 041 1 32.2
2019-Aug-22 14:03 078 2 32.2
2019-Aug-22 13:57 209 1 32.2
2019-Aug-22 13:52 155 1 32.2
2019-Aug-22 13:47 158 1 31.7
2019-Aug-22 13:42 209 1 31.7
2019-Aug-22 13:38 153 0 31.7
2019-Aug-22 13:33 178 0 31.7
2019-Aug-22 13:28 107 0 31.7
2019-Aug-22 13:23 141 0 31.7
2019-Aug-22 13:18 112 1 31.7
2019-Aug-22 13:13 078 2 31.7
2019-Aug-22 13:08 140 2 31.7
2019-Aug-22 13:02 155 0 31.1
2019-Aug-22 12:58 128 1 31.1
2019-Aug-22 12:53 147 1 31.1
2019-Aug-22 12:48 098 0 31.1
2019-Aug-22 12:43 090 1 31.7
2019-Aug-22 12:38 180 1 31.1
2019-Aug-22 12:33 175 2 31.1
2019-Aug-22 12:27 192 2 31.1
2019-Aug-22 12:22 184 0 30.6
2019-Aug-22 12:17 168 0 30.6
2019-Aug-22 12:12 115 0 30.0
2019-Aug-22 12:07 094 0 30.0
2019-Aug-22 12:02 128 0 30.0
2019-Aug-22 11:57 231 30.0
2019-Aug-22 11:52 158 1 30.0
2019-Aug-22 11:47 158 1 30.6
2019-Aug-22 11:43 159 0 30.6
2019-Aug-22 11:38 201 30.0
2019-Aug-22 11:33 051 0 30.0
2019-Aug-22 11:27 202 0 30.0
2019-Aug-22 11:23 144 0 30.0
2019-Aug-22 11:17 159 1 30.0
2019-Aug-22 11:12 173 2 29.4
2019-Aug-22 11:08 150 2 29.4
2019-Aug-22 11:03 164 1 28.9
2019-Aug-22 10:58 194 0 28.9
2019-Aug-22 10:53 107 1 28.3
2019-Aug-22 10:47 138 0 28.3
2019-Aug-22 10:42 153 27.8
2019-Aug-22 10:37 148 0 27.8
2019-Aug-22 10:33 096 0 27.8
2019-Aug-22 10:28 102 0 27.8
2019-Aug-22 10:23 142 0 27.2
2019-Aug-22 10:18 104 0 26.7
2019-Aug-22 10:13 104 0 27.2
2019-Aug-22 10:08 076 0 26.7
2019-Aug-22 10:03 071 0 26.7
2019-Aug-22 09:57 139 0 26.7
2019-Aug-22 09:52 240 0 26.7
2019-Aug-22 09:47 150 0 26.7
2019-Aug-22 09:43 134 26.7
2019-Aug-22 09:37 163 26.7
2019-Aug-22 09:32 140 26.7
2019-Aug-22 09:28 139 26.7
2019-Aug-22 09:23 164 26.7
2019-Aug-22 09:18 161 0 26.7
2019-Aug-22 09:13 161 0 26.1
2019-Aug-22 09:08 181 26.1
2019-Aug-22 09:03 185 26.1
2019-Aug-22 08:58 159 25.6
2019-Aug-22 08:53 154 25.0
2019-Aug-22 08:48 153 25.0
2019-Aug-22 08:42 154 25.0
2019-Aug-22 08:37 149 25.0
2019-Aug-22 08:33 118 25.0
2019-Aug-22 08:28 118 25.0
2019-Aug-22 08:23 118 24.4
2019-Aug-22 08:17 037 24.4
2019-Aug-22 08:13 005 23.9
2019-Aug-22 08:07 360 23.9
2019-Aug-22 08:02 360 23.9
2019-Aug-22 07:58 360 23.9
2019-Aug-22 07:53 360 23.3
2019-Aug-22 07:48 351 23.3
2019-Aug-22 07:43 355 22.8
2019-Aug-22 07:37 351 22.8
2019-Aug-22 07:33 355 22.8
2019-Aug-22 07:28 351 22.2
2019-Aug-22 07:22 355 21.7
2019-Aug-22 07:18 351 21.7
2019-Aug-22 07:12 351 21.1
2019-Aug-22 07:07 355 21.1
2019-Aug-22 07:03 355 21.1
2019-Aug-22 06:57 355 20.6
2019-Aug-22 06:52 355 20.6
2019-Aug-22 06:48 355 20.0
2019-Aug-22 06:43 355 19.4
2019-Aug-22 06:38 355 19.4
2019-Aug-22 06:33 005 18.9
2019-Aug-22 06:28 005 18.9
2019-Aug-22 06:22 344 18.3
2019-Aug-22 06:17 344 18.3
2019-Aug-22 06:13 344 18.3
2019-Aug-22 06:07 344 18.3
2019-Aug-22 06:03 344 18.3
2019-Aug-22 05:58 344 18.3
2019-Aug-22 05:52 344 18.3
2019-Aug-22 05:47 347 18.3
2019-Aug-22 05:43 345 18.3
2019-Aug-22 05:37 346 18.3
2019-Aug-22 05:32 342 18.3
2019-Aug-22 05:28 343 18.9
2019-Aug-22 05:23 342 18.9
2019-Aug-22 05:18 342 18.9
2019-Aug-22 05:12 342 18.9
2019-Aug-22 05:07 355 18.9
2019-Aug-22 05:03 347 18.9
2019-Aug-22 04:57 347 18.9
2019-Aug-22 04:52 348 19.4
2019-Aug-22 04:48 348 19.4
2019-Aug-22 04:42 348 19.4
2019-Aug-22 04:37 355 19.4
2019-Aug-22 04:33 355 19.4
2019-Aug-22 04:27 355 20.0
2019-Aug-22 04:22 355 20.0
2019-Aug-22 04:18 355 20.0
2019-Aug-22 04:13 355 0 20.0
2019-Aug-22 04:08 005 0 20.0
2019-Aug-22 04:03 360 20.0
2019-Aug-22 03:57 345 20.6
2019-Aug-22 03:52 347 20.6
2019-Aug-22 03:48 349 20.6
2019-Aug-22 03:42 351 20.6
2019-Aug-22 03:38 360 0 20.6
2019-Aug-22 03:32 011 20.6
2019-Aug-22 03:27 360 21.1
2019-Aug-22 03:23 360 21.1
2019-Aug-22 03:17 360 21.1
2019-Aug-22 03:12 355 21.1
2019-Aug-22 03:08 005 21.1
2019-Aug-22 03:02 020 21.1
2019-Aug-22 02:58 024 21.1
2019-Aug-22 02:53 333 0 21.1
2019-Aug-22 02:48 355 0 21.1
2019-Aug-22 02:43 347 1 21.1
2019-Aug-22 02:37 342 1 21.1
2019-Aug-22 02:32 346 0 21.1
2019-Aug-22 02:28 011 0 21.1
2019-Aug-22 02:22 017 21.1
2019-Aug-22 02:17 348 0 20.6
2019-Aug-22 02:13 040 0 20.6
2019-Aug-22 02:07 011 20.6
2019-Aug-22 02:03 360 0 20.6
2019-Aug-22 01:57 355 2 20.6
2019-Aug-22 01:52 009 1 20.6
2019-Aug-22 01:48 346 0 20.6
2019-Aug-22 01:43 355 20.6
2019-Aug-22 01:38 349 20.6
2019-Aug-22 01:33 348 20.6
2019-Aug-22 01:27 345 20.6
2019-Aug-22 01:22 338 21.1
2019-Aug-22 01:17 338 21.1
2019-Aug-22 01:12 338 21.1
2019-Aug-22 01:08 338 21.7
2019-Aug-22 01:03 345 21.7